Content
SEND FEEDBACK

Daily
Averages
Monthly
Summary
United States of America

WILMINGTON, NORTH CAROLINA


Home > North America > United States > North Carolina
Elevation: 72 feet     Latitude: 34 16N     Longitude: 077 54W

WEATHER
 
SELECT A DAY
Number of Records: 208,677;   Date Range: 1/1/95 - 7/22/14
 
SHARE

PRINT THIS DATA

[ ← Previous Day ]
WEATHER ALMANAC - APRIL 21, 2013
[ Next Day → ]
[ °C ]   °F
Weather ElementAverageHighLow
Temperature54.4 °F64 °F (2:53 pm)43 °F (4:53 am)
Dewpoint41.6 °F46 °F (7:53 am)36 °F (10:53 pm)
Humidity64 %90 % (6:53 am)46 % (3:53 pm)
Barometer30.37 in30.44 in (9:53 pm)30.26 in (1:53 am)
Wind Speed12.5 mph21.9 mph (11:53 am)
Wind Gust32.2 mph (10:53 am)
Weather ElementAverage
Visibility10 mi
Wind DirectionNE (49.1 °)

Weather ElementTotal
Precipitation---
Heating Degree Days11.5 (Base 65)
Growing Degree Days3.5 (Base 50)
Averaged from 23 records on April 21, 2013
WEATHER CONDITIONS BREAKOUT
WIND DIRECTION BREAKOUT
WEATHER BY HOUR - APRIL 21, 2013
[ °C ]   °F
Local TimeTemperatureDewpointHumidityBarometerVisibilityWind DirectionWind SpeedGust SpeedPrecipitationEventsConditions
1:53 AM46.0 °F42.1 °F86 %30.26 in10.0 miNNE (20°)3.5 mphClear
2:53 AM45.0 °F41.0 °F86 %30.26 in10.0 miCalmClear
3:53 AM44.1 °F41.0 °F89 %30.27 in10.0 miNNE (20°)4.6 mphClear
4:53 AM43.0 °F39.9 °F89 %30.28 in10.0 miNE (50°)4.6 mphClear
5:53 AM45.0 °F41.0 °F86 %30.30 in10.0 miNNE (30°)6.9 mphClear
6:53 AM45.0 °F42.1 °F90 %30.33 in10.0 miNNE (30°)5.8 mphClear
7:53 AM50.0 °F46.0 °F86 %30.36 in10.0 miNE (40°)8.1 mphClear
8:53 AM55.9 °F46.0 °F69 %30.37 in10.0 miNE (50°)11.5 mphClear
9:53 AM60.1 °F44.1 °F55 %30.39 in10.0 miNE (40°)15.0 mph23.0 mphClear
10:53 AM62.1 °F42.1 °F48 %30.40 in10.0 miENE (60°)20.7 mph32.2 mphClear
11:53 AM63.0 °F45.0 °F52 %30.40 in10.0 miENE (60°)21.9 mph27.6 mphClear
12:53 PM63.0 °F44.1 °F50 %30.40 in10.0 miENE (70°)16.1 mph27.6 mphClear
1:53 PM62.1 °F42.1 °F48 %30.41 in10.0 miEast (90°)20.7 mph29.9 mphMostly Cloudy
2:53 PM64.0 °F44.1 °F48 %30.40 in10.0 miENE (70°)18.4 mph29.9 mphScattered Clouds
3:53 PM62.1 °F41.0 °F46 %30.38 in10.0 miEast (80°)17.3 mph28.8 mphScattered Clouds
4:53 PM61.0 °F42.1 °F50 %30.38 in10.0 miENE (70°)20.7 mph31.1 mphMostly Cloudy
5:53 PM59.0 °F42.1 °F53 %30.38 in10.0 miENE (70°)21.9 mph28.8 mphMostly Cloudy
6:53 PM57.9 °F41.0 °F53 %30.38 in10.0 miENE (70°)13.8 mph24.2 mphMostly Cloudy
7:53 PM55.9 °F39.0 °F53 %30.39 in10.0 miNE (50°)11.5 mphMostly Cloudy
8:53 PM55.0 °F39.9 °F57 %30.42 in10.0 miNE (50°)9.2 mphMostly Cloudy
9:53 PM53.1 °F39.0 °F59 %30.44 in10.0 miNE (50°)13.8 mph20.7 mphScattered Clouds
10:53 PM50.0 °F36.0 °F59 %30.43 in10.0 miNE (40°)9.2 mphClear
11:53 PM48.9 °F36.0 °F61 %30.40 in10.0 miNNE (20°)12.7 mphClear
Hourly data recorded from KILM, located miles away from Wilmington, North Carolina







STORIES FROM OUR PARTNERS